Location: Izdebno
(52.6670°N, 16.2170°E)
Time: 12:09:58
(UTC+02:00)

A-11 Canister half - Pass Details

Date: 17 February 2023
Orbit: 1526 x 1682 km, 47.3° (Epoch: 26 March)

Event Time Altitude Azimuth Distance (km) Brightness Sun altitude
Rises 09:05:59 0° 285° (WNW) 4,684 11.0 14.3°
Reaches altitude 10° 09:09:57 10° 271° (W) 3,706 10.6 14.8°
Maximum altitude 09:16:18 21° 227° (SW) 2,955 10.6 15.5°
Drops below altitude 10° 09:22:43 10° 183° (S) 3,753 11.8 16.1°
Sets 09:26:49 0° 169° (S) 4,759 12.6 16.5°
